Погода в Бологове

Россия / Тверская область     56°54′06″N   31°42′26″E
темп.,
°C
ветер,
м/с
пор.,
м/с
влажн.,
%
обл.,
%
осадки,
мм/ч
давл.,
гПа
погр.,
м
14 мая, пт
пт1400:00+8ююв411967 0.0 1012376
03:00+6ююв310975 0.0 1013264
06:00+7юв3119020 0.0 1012357
09:00+10юв51284100 0.1 1012598
12:00+15ююв6116472 0.0 10121201
15:00+16юв5106256 0.0 10111314
18:00+16юв486429 0.0 1010922
21:00+11вюв24875 0.0 100981
15 мая, сб
сб1500:00+10вюв31193100 0.0 1008242
03:00+11вюв3998100 0.5 1007272
06:00+12юв269887 1.0 1006296
09:00+13юв3694100 1.1 1006473
12:00+14ю369094 0.4 1006661
15:00+15ю3684100 0.9 1005719
18:00+16ююз368726 2.2 1005634
21:00+12ююз299524 3.9 1005254
16 мая, вс
вс1600:00+11ююз399796 0.0 1005260
03:00+11ююз379864 0.1 1006227
06:00+10ююз2699100 0.0 1007193
09:00+12зюз3691100 0.0 1009486
12:00+18зюз464876 0.0 10101169
15:00+20зюз35455 0.0 10101634
18:00+19зюз245413 0.0 10101700
21:00+15ю2274100 0.0 101119
17 мая, пн
пн1700:00+12ю228856 0.0 101231
03:00+11ююв37970 0.0 1012129
06:00+11юв38934 0.0 1012211
09:00+17юв477133 0.0 1012614
12:00+20ююв5753100 0.0 10111503
15:00+22юв4847100 0.0 10092025
18:00+17вюв41186100 1.9 1006399
21:00+16вюв31395100 7.1 1003463
18 мая, вт
вт1800:00+16ююв41293100 3.1 1002683
03:00+14юз389761 5.1 1003476
06:00+11юз2498100 0.0 1005184
09:00+13зсз2394100 0.2 1005385
12:00+15сз2283100 0.2 1007716
15:00+18сз1163100 0.4 10061191
18:00+17зсз2276100 0.3 1005337
21:00+14сз1188100 0.6 100512